Regional Weather Roundup
Issued by NWS Spokane, WA

Home | Current Version | Previous Version | Text Only | Print | Product List | Glossary On
Versions: 1 2 3 4 5 6 7 8 9 10 11 12 13 14 15 16 17 18 19 20 21 22 23 24 25 26 27 28 29 30 31 32 33 34 35 36 37 38 39 40 41 42 43 44 45 46 47 48 49 50
000
NZUS01 KOTX 161805
RWROTX

Eastern Washington/Northern Idaho Roundup
National Weather Service, Spokane WA
1000 AM PST SAT DEC 16 2017

Note: "fair" indicated few or no clouds below 12,000 feet with no
significant weather and/or obstructions to visibility.

...Northeast Washington and Northern Idaho Panhandle...

CITY           SKY/WX    TMP DP  RH WIND       PRES   REMARKS
Spokane Intl   LGT SNOW  25  24  96 CALM      30.23R VSB 1
Spokane Downto CLOUDY    28  25  88 SW5       30.26R WCI  23
Coeur d Alene  CLOUDY    28  25  88 W7        30.24R WCI  21
Deer Park      CLOUDY    27  25  92 E3        30.24R
Sandpoint      CLOUDY    30  27  86 SW6       30.23R WCI  24
Bonners Ferry  CLOUDY    28  25  86 CALM      30.19R

...Southeast Washington and southern Idaho Panhandle...

CITY           SKY/WX    TMP DP  RH WIND       PRES   REMARKS
Walla Walla    PTSUNNY   34  31  88 S3        30.29R
Pullman/Moscow FOG       25  23  92 NW5       30.24R VSB 1/4 WCI  19
Lewiston       CLOUDY    30  29  96 S3        30.29R
Lowell           N/A     32  30  92 CALM      30.27R
Grangeville    CLOUDY    27  27 100 E7        30.18R WCI  19

...Columbia Basin...

CITY           SKY/WX    TMP DP  RH WIND       PRES   REMARKS
Ephrata        CLOUDY    29  24  82 NE3       30.29R HAZE
Moses Lake     CLOUDY    29  29 100 NW3       30.31R
Pasco          CLOUDY    34  31  88 CALM      30.36R
Richland       CLOUDY    34  32  94 W8        30.35R WCI  27
Hermiston      FOG       27  27 100 CALM      30.32R VSB<1/4
Pendleton      MOSUNNY   36  32  85 N3        30.27R

...East Slopes Cascades...

CITY           SKY/WX    TMP DP  RH WIND       PRES   REMARKS
The Dalles     CLOUDY    47  36  65 NW13      30.33R
Yakima         CLOUDY    30  26  85 CALM      30.30R
Ellensburg     CLOUDY    38  30  73 CALM      30.25R
Stampede Pass  FOG       30  29  96 VRB6      30.20R VSB 1/4 WCI  24
Wenatchee      CLOUDY    30  29  96 E5        30.29R FOG     WCI  25
Omak           CLOUDY    28  27  96 N5        30.29R WCI  23
Sunnyside      CLOUDY    25  24  98 CALM      30.33R FOG

...Southern British Columbia...

CITY           SKY/WX    TMP DP  RH WIND       PRES   REMARKS

...Western Montana...

CITY           SKY/WX    TMP DP  RH WIND       PRES   REMARKS
Kalispell      CLOUDY    29  26  89 CALM      30.10R
Libby            N/A     32  27  80 CALM      30.14R
Missoula       CLOUDY    30  28  92 CALM      30.09R

...Neighboring Cities...

CITY           SKY/WX    TMP DP  RH WIND       PRES   REMARKS
Seattle        CLOUDY    41  37  86 SE8       30.34R
Portland       CLOUDY    42  39  89 SE7       30.39R
Boise          SUNNY     28  23  81 NW12      30.11S WCI  18
Great Falls    CLOUDY    30  26  85 VRB3      30.01R



USA.gov is the U.S. government's official web portal to all federal, state and local government web resources and services.